Regional Weather Roundup
Issued by NWS

Home | Current Version | Previous Version | Graphics & Text | Print | Product List | Glossary On
Versions: 1 2 3 4 5 6 7 8 9 10 11 12 13 14 15 16 17 18 19 20 21 22 23 24 25 26 27 28 29 30 31 32 33 34 35 36 37 38 39 40 41 42 43 44 45 46 47 48 49 50
390
ASUS43 KLOT 281408
RWRIL

ILLINOIS REGIONAL WEATHER ROUNDUP
NATIONAL WEATHER SERVICE CHICAGO/ROMEOVILLE IL
800 AM CST TUE FEB 28 2017

NOTE: "FAIR" INDICATES FEW OR NO CLOUDS BELOW 12,000 FEET WITH NO
SIGNIFICANT WEATHER AND/OR OBSTRUCTIONS TO VISIBILITY.

* THESE STATIONS ARE NOT UNDER NWS QUALITY CONTROL. THEY ALSO MAY NOT
  REPORT WEATHER SUCH AS PRECIPITATION OR FOG.

ILZ001-002-007-009-015-016-024-281500-
NORTHWEST ILLINOIS

CITY           SKY/WX    TMP DP  RH WIND       PRES   REMARKS
MOLINE         CLOUDY    52  49  89 S12       29.72F
STERLING*      CLOUDY    52  50  93 S8        29.76F
$$

ILZ003-004-008-010-011-017-018-281500-
NORTH CENTRAL ILLINOIS

CITY           SKY/WX    TMP DP  RH WIND       PRES   REMARKS
ROCKFORD       CLOUDY    50  47  89 S14       29.79S FOG
FREEPORT*      CLOUDY    47  47  97 S13       29.76F FOG
ROCHELLE*      CLOUDY    49  48  97 S16       29.78F FOG
DE KALB*       CLOUDY    49  47  94 S15       29.80S
PERU*          CLOUDY    51  49  90 S17       29.81S
$$

ILZ005-006-012>014-019>023-281500-
NORTHEAST ILLINOIS

CITY           SKY/WX    TMP DP  RH WIND       PRES   REMARKS
CHICAGO-OHARE  CLOUDY    52  47  83 S12       29.82R
CHICAGO-MIDWAY CLOUDY    51  46  83 S17G28    29.83R
AURORA         CLOUDY    50  47  89 S14       29.82R
LANSING*       CLOUDY    49  48  96 S14       29.86R
JOLIET*        CLOUDY    52  50  92 S14       29.84S
WAUKEGAN       CLOUDY    45  43  93 S6        29.80S FOG
DUPAGE AIRPORT CLOUDY    51  46  83 S15       29.82R
KANKAKEE*      CLOUDY    50  48  93 S14       29.88R
WHEELING       CLOUDY    50  46  86 S12       29.83R
MORRIS*        CLOUDY    50  48  92 S14G20    29.81F
ROMEOVILLE*    CLOUDY    49  49  99 S14       29.84R
NORTHERLY ISL    N/A     50  45  83 S15         N/A
$$

LMZ740>746-281500-
SOUTHERN LAKE MICHIGAN

STATION/POSITION SKY/WX   TEMP    WIND        PRES    VSBY  WAVE
                          AIR SEA DIR/SP/G                  HT/PER
                          (F)     (DEG/KT/KT) (MB)    (MI)  (FT/S)
HARRISON CRIB              47     180/ 27/ 28   N/A
BURNHAM HARBOR             50     180/ 13/ 15   N/A
CALUMET HARBOR             50     170/ 13/ 17 1010.0R
BURNS HARBOR               49     170/ 14/ 22 1011.9F
MICHIGAN CITY              48     140/ 15/ 19   N/A
$$

ILZ025>027-034>036-040-047-049-050-058-095>099-281500-
WEST-CENTRAL ILLINOIS

CITY           SKY/WX    TMP DP  RH WIND       PRES   REMARKS
QUINCY         CLOUDY    58  54  86 S13       29.75F
GALESBURG*     CLOUDY    51  51  98 SE7       29.75F
MACOMB*        CLOUDY    55  52  90 S10       29.77F
JACKSONVILLE*  CLOUDY    55  53  90 S10       29.82R
PITTSFIELD*    CLOUDY    58  54  88 S12       29.80S
$$

ILZ028>032-037-038-041>044-048-051>054-059>061-281500-
CENTRAL ILLINOIS

CITY           SKY/WX    TMP DP  RH WIND       PRES   REMARKS
PONTIAC        CLOUDY    52  51  98 S18       29.84F
BLOOMINGTON    CLOUDY    51  50  96 S18       29.84F FOG
DECATUR        CLOUDY    52  52 100 S15       29.86F FOG
PEORIA         CLOUDY    52  52 100 S10       29.80F FOG
LACON*         LGT RAIN  51  51  98 S10       29.80S
LINCOLN*       CLOUDY    53  53 100 S15       29.83F FOG
SPRINGFIELD    CLOUDY    56  53  90 S15       29.83F FOG
TAYLORVILLE    CLOUDY    53  52  97 S14G20    29.85F FOG
$$

ILZ033-039-045-046-055>057-062-063-281500-
EAST-CENTRAL ILLINOIS

CITY           SKY/WX    TMP DP  RH WIND       PRES   REMARKS
CHAMPAIGN      CLOUDY    51  49  92 S15       29.90R FOG
RANTOUL*       CLOUDY    52  51  97 S15       29.89S FOG
MATTOON        CLOUDY    52  52 100 S14       29.89F
PARIS*         CLOUDY    51  50  98 S13       29.93S FOG
$$

ILZ079-100>102-281500-
SOUTHWEST ILLINOIS

CITY           SKY/WX    TMP DP  RH WIND       PRES   REMARKS
ALTON          CLOUDY    55  52  88 S14       29.86S
BELLEVILLE     CLOUDY    56  56 100 VRB3      29.85F
CAHOKIA*       CLOUDY    58  53  84 S6        29.86S
SPARTA*        CLOUDY    56  54  92 S15       29.90R
$$

ILZ064>066-069>071-074>076-080>082-084>086-088>090-092>094-281500-
SOUTH-CENTRAL ILLINOIS

CITY           SKY/WX    TMP DP  RH WIND       PRES   REMARKS
CARBONDALE     CLOUDY    56  56 100 S12       29.92S FOG
CAIRO*         CLOUDY    59  59 100 S12       29.96S FOG
EFFINGHAM*     CLOUDY    52  52 100 SE8       29.92F
MARION         CLOUDY    55  55 100 S12       29.94F FOG
MT. VERNON     CLOUDY    56  55  97 S14       29.91F
CENTRALIA*     CLOUDY    57  56  95 S12       29.89F
SALEM*         CLOUDY    57  54  88 S10G20    29.90F
METROPOLIS*    CLOUDY    60  60  97 S12       29.98R FOG
$$

ILZ067-068-072-073-078-083-087-091-281500-
SOUTHEAST ILLINOIS

CITY           SKY/WX    TMP DP  RH WIND       PRES   REMARKS
LAWRENCEVILLE  CLOUDY    52  51  97 S9        29.96S FOG
FLORA*         CLOUDY    53  52  95 SE7       29.93S
FAIRFIELD*     CLOUDY    54  54 100 S7        29.92F
HARRISBURG*    RAIN      56  56  99 SW3       29.97R
ROBINSON*      CLOUDY    51  50  97 S12       29.96S
CARMI*         CLOUDY    53  53 100 S8        29.96R
$$

ABBREVIATIONS USED IN REMARKS
   TC - TEMPERATURE IN CELSIUS
  WCI - WIND CHILL INDEX
   HX - HEAT INDEX
  VSB - VISIBILITY
$$





USA.gov is the U.S. government's official web portal to all federal, state and local government web resources and services.